TimeAKST,TemperatureF,Dew PointF,Humidity,Sea Level PressureIn,VisibilityMPH,Wind Direction,Wind SpeedMPH,Gust SpeedMPH,PrecipitationIn,Events,Conditions,WindDirDegrees,DateUTC
12:55 AM,1.9,-0.0,91,29.69,10.0,SE,4.6,-,N/A,,Clear,130,2014-01-01 09:55:00
1:55 AM,1.8,-0.4,91,29.68,10.0,SSE,5.8,-,N/A,,Clear,150,2014-01-01 10:55:00
2:17 AM,3.2,-0.4,85,29.68,10.0,SE,5.8,-,N/A,,Mostly Cloudy,140,2014-01-01 11:17:00
2:37 AM,1.4,-0.4,92,29.66,10.0,SE,6.9,-,N/A,,Partly Cloudy,130,2014-01-01 11:37:00
2:55 AM,1.4,-2.6,83,29.65,10.0,ESE,4.6,-,N/A,,Clear,120,2014-01-01 11:55:00
3:55 AM,-0.6,-2.4,92,29.65,10.0,SSE,4.6,-,N/A,,Clear,150,2014-01-01 12:55:00
4:55 AM,0.7,-3.3,83,29.63,10.0,ESE,6.9,-,N/A,,Clear,110,2014-01-01 13:55:00
5:55 AM,-1.3,-3.8,89,29.62,10.0,SE,6.9,-,N/A,,Clear,130,2014-01-01 14:55:00
6:55 AM,-0.2,-2.6,90,29.60,10.0,ESE,6.9,-,N/A,,Clear,120,2014-01-01 15:55:00
7:55 AM,-1.5,-4.2,88,29.58,10.0,ESE,9.2,-,N/A,,Clear,120,2014-01-01 16:55:00
8:55 AM,-1.8,-4.2,90,29.57,10.0,SE,10.4,-,N/A,,Partly Cloudy,130,2014-01-01 17:55:00
9:55 AM,-2.9,-5.4,89,29.56,10.0,ESE,8.1,-,N/A,Snow,Light Snow Showers,120,2014-01-01 18:55:00
10:17 AM,-2.2,-5.8,85,29.56,10.0,ESE,10.4,-,N/A,,Clear,120,2014-01-01 19:17:00
10:55 AM,-4.5,-7.2,88,29.56,10.0,ESE,5.8,-,N/A,,Scattered Clouds,110,2014-01-01 19:55:00
11:17 AM,-4.0,-7.6,85,29.55,10.0,SE,6.9,-,N/A,,Mostly Cloudy,130,2014-01-01 20:17:00
11:55 AM,-6.3,-9.6,86,29.55,10.0,SE,10.4,-,N/A,,Mostly Cloudy,130,2014-01-01 20:55:00
12:37 PM,-7.6,-11.2,84,29.55,10.0,SE,8.1,-,N/A,,Scattered Clouds,130,2014-01-01 21:37:00
12:55 PM,-8.9,-12.1,86,29.55,10.0,SE,10.4,-,N/A,,Partly Cloudy,140,2014-01-01 21:55:00
1:55 PM,-9.2,-12.3,86,29.55,10.0,SE,11.5,-,N/A,,Clear,140,2014-01-01 22:55:00
2:55 PM,-7.4,-10.7,86,29.54,10.0,SE,11.5,-,N/A,,Clear,140,2014-01-01 23:55:00
3:55 PM,-7.4,-10.8,85,29.54,10.0,SE,9.2,-,N/A,,Clear,140,2014-01-02 00:55:00
4:55 PM,-8.5,-11.6,86,29.55,10.0,SSE,8.1,-,N/A,,Clear,150,2014-01-02 01:55:00
5:55 PM,-5.8,-8.5,88,29.55,10.0,SSE,10.4,-,N/A,,Clear,150,2014-01-02 02:55:00
6:37 PM,-5.8,-9.4,84,29.56,10.0,SE,12.7,-,N/A,Snow,Light Snow Showers,140,2014-01-02 03:37:00
6:55 PM,-5.3,-8.3,87,29.56,10.0,SE,13.8,-,N/A,,Clear,130,2014-01-02 03:55:00
6:57 PM,-5.8,-7.6,92,29.56,10.0,SE,15.0,-,N/A,Snow,Light Snow Showers,130,2014-01-02 03:57:00
7:17 PM,-5.8,-9.4,84,29.56,10.0,SE,12.7,-,N/A,,Clear,140,2014-01-02 04:17:00
7:55 PM,-4.7,-7.2,89,29.56,10.0,SSE,15.0,-,N/A,,Scattered Clouds,150,2014-01-02 04:55:00
8:55 PM,-4.5,-7.6,87,29.57,10.0,SE,13.8,-,N/A,,Clear,140,2014-01-02 05:55:00
9:55 PM,-5.1,-8.1,87,29.57,10.0,SSE,15.0,-,N/A,,Clear,150,2014-01-02 06:55:00
10:55 PM,-4.9,-8.3,85,29.60,10.0,SSE,12.7,-,N/A,,Clear,150,2014-01-02 07:55:00
11:55 PM,-6.0,-10.5,81,29.62,10.0,SSE,9.2,-,N/A,,Clear,150,2014-01-02 08:55:00